{"data":{"norad_id":57779,"epoch":"2026-09-20T10:38:30.993792Z","epoch_age_seconds":153389,"freshness":"FRESH","line1":"1 57779U 23134J   26263.44341428  .00000176  00000+0  15932-4 0  9994","line2":"2 57779  43.0039 163.3613 0000947 277.4872  82.5872 15.27574296169428","mean_motion":15.27574296,"eccentricity":9.47e-5,"inclination_deg":43.0039,"raan_deg":163.3613,"arg_perigee_deg":277.4872,"mean_anomaly_deg":82.5872,"bstar":1.5932e-5,"rev_number":16942,"period_min":94.26710070801,"perigee_km":482.41641998004,"apogee_km":483.71593186156,"semimajor_km":6861.2031759208,"source":"CELESTRAK","updated_at":"2026-09-21T09:00:33.703750Z"}}